This is the latest recevied weather packets stored in our database for station/object KD8ZLZ-13. If no packets are shown the sender has not sent any weather packets the latest 10 day(s).
| Time | Temp. | Humidity | Pressure | Rain* | Wind** | Luminosity | Snow |
|---|---|---|---|---|---|---|---|
| 1778092842 | 11.67° C | 41% | 1013.6 hPa | 0 mm | - | 628 W/m² | - |
| 1778092242 | 12.22° C | 42% | 1013.6 hPa | 0 mm | - | 473 W/m² | - |
| 1778091642 | 12.22° C | 42% | 1013.9 hPa | 0 mm | - | 598 W/m² | - |
| 1778091042 | 11.67° C | 41% | 1013.9 hPa | 0 mm | - | 561 W/m² | - |
| 1778090442 | 11.67° C | 41% | 1014.2 hPa | 0 mm | - | 576 W/m² | - |
| 1778089842 | 11.11° C | 42% | 1014.2 hPa | 0 mm | - | 614 W/m² | - |
| 1778089242 | 11.11° C | 42% | 1014.2 hPa | 0 mm | - | 386 W/m² | - |
| 1778088642 | 10.56° C | 41% | 1013.9 hPa | 0 mm | - | 324 W/m² | - |
| 1778088042 | 11.11° C | 39% | 1013.9 hPa | 0 mm | - | 327 W/m² | - |
| 1778087442 | 10.56° C | 40% | 1013.9 hPa | 0 mm | - | 374 W/m² | - |
| 1778086842 | 11.11° C | 42% | 1013.9 hPa | 0 mm | - | 313 W/m² | - |
| 1778086242 | 11.67° C | 42% | 1013.6 hPa | 0 mm | - | 584 W/m² | - |
| 1778085642 | 11.11° C | 42% | 1013.6 hPa | 0 mm | - | 360 W/m² | - |
| 1778085042 | 11.11° C | 42% | 1013.6 hPa | 0 mm | - | 350 W/m² | - |
| 1778084442 | 11.67° C | 41% | 1013.2 hPa | 0 mm | - | 471 W/m² | - |
| 1778083843 | 11.67° C | 41% | 1013.2 hPa | 0 mm | - | 686 W/m² | - |
| 1778083242 | 11.67° C | 40% | 1013.2 hPa | 0 mm | - | 553 W/m² | - |
| 1778082642 | 11.67° C | 41% | 1013.2 hPa | 0 mm | - | 513 W/m² | - |
| 1778082042 | 12.22° C | 40% | 1013.2 hPa | 0 mm | - | 737 W/m² | - |
| 1778081442 | 11.11° C | 40% | 1012.9 hPa | 0 mm | - | 638 W/m² | - |
| 1778080842 | 11.67° C | 40% | 1012.9 hPa | 0 mm | - | 493 W/m² | - |
| 1778080242 | 11.67° C | 40% | 1012.9 hPa | 0 mm | - | 448 W/m² | - |
| 1778079642 | 11.67° C | 40% | 1012.9 hPa | 0 mm | - | 819 W/m² | - |
| 1778079042 | 11.67° C | 40% | 1012.9 hPa | 0 mm | - | 688 W/m² | - |
| 1778078442 | 11.67° C | 41% | 1012.9 hPa | 0 mm | - | 663 W/m² | - |
* Rain latest hour (hover to see other rain measurements)
** Current wind speed in m/s (hover to see current wind gust speed)